Location: Budapest
(47.4979°N, 19.0402°E)
Time: 12:55:26
(UTC+02:00)

Tiangong 2 - Visible Passes

Search period start: 22 May 2019 00:00
Search period end: 01 June 2019 00:00
Orbit: 379 x 387 km, 42.8° (Epoch: 22 May)

Date Brightness Start Highest point End Pass type
(mag) Time Alt. Az. Time Alt. Az. Time Alt. Az.
22 May 2.4 21:01:10 10° SW 21:03:44 23° SSE 21:06:18 10° ESE visible
22 May 2.3 22:37:09 10° WSW 22:39:08 28° SW 22:39:08 28° SW visible
23 May 1.8 21:37:15 10° WSW 21:40:07 33° S 21:42:00 17° ESE visible
23 May 3.6 23:13:43 10° WSW 23:14:11 13° WSW 23:14:11 13° WSW visible
24 May 1.8 22:13:42 10° WSW 22:16:33 32° S 22:16:54 31° S visible
25 May 1.9 21:13:45 10° WSW 21:16:38 34° S 21:19:31 10° ESE visible
25 May 3.1 22:50:26 10° WSW 22:51:42 17° SW 22:51:42 17° SW visible
26 May 2.2 21:50:18 10° WSW 21:53:02 27° SSW 21:54:17 21° SSE visible
27 May 3.1 22:27:17 10° WSW 22:28:59 16° SSW 22:28:59 16° SSW visible
28 May 2.6 21:26:57 10° WSW 21:29:27 22° SSW 21:31:31 12° SSE visible
29 May 3.5 22:04:43 10° SW 22:05:38 11° SSW 22:06:13 11° SSW visible
30 May 3.2 21:03:46 10° WSW 21:05:49 16° SSW 21:07:52 10° SSE visible
